#timestamp,LO_Frequency,Hit,StdDev 
1541242815.6,286047001.0,P
1541242835.4,286047002.0,N
1541242855.3,286046999.7,N
1541242875.1,286046998.6,N
1541242895.8,286046997.6,N
1541242915.7,286046998.3,N
1541242935.5,286047002.1,N
1541242955.4,286047000.6,N
1541242975.2,286047001.5,N
1541242995.0,286047003.6,N
1541242995.9,286047003.6,N
1541243015.8,286047002.4,N
1541243035.6,286047002.2,N
1541243055.4,286047001.6,N
1541243075.3,286047001.9,N
1541243095.1,286047002.2,N
1541243115.9,286047001.4,N
1541243135.7,286047004.5,N
1541243155.5,286047007.3,Y
1541243175.4,286047003.4,P
1541243195.2,286047004.0,P
1541243215.0,286047002.4,N
1541243215.9,286047002.4,N
1541243235.8,286047002.8,Y
1541243255.6,286046997.2,P
1541243275.5,286046997.4,N
1541243295.3,286046997.9,N
1541243315.1,286046995.0,N
1541243335.9,286046995.4,N
1541243355.7,286046997.5,N
1541243375.5,286046998.3,N
1541243395.4,286047000.6,N
1541243415.2,286047001.0,N
1541243435.1,286047002.4,N
1541243436.0,286047002.4,N
1541243455.8,286047000.9,N
1541243475.6,286046998.7,N
1541243495.5,286046995.1,N
1541243515.3,286046995.1,N
1541243535.1,286046995.1,N
1541243555.9,286046997.4,N
1541243575.7,286046997.3,N
1541243595.6,286046993.9,N
1541243615.4,286046993.6,N
1541243635.2,286046993.7,N
1541243655.1,286046996.3,N
1541243656.0,286046996.3,N
1541243675.8,286046994.1,N
1541243695.6,286046994.8,N
1541243715.5,286046994.5,N
1541243735.3,286046991.8,N
1541243755.2,286046990.6,Y
1541243775.9,286046993.6,P
1541243795.7,286046994.3,P
1541243815.6,286046993.7,P
1541243835.4,286046993.9,Y
1541243855.2,286046998.1,P
1541243875.1,286046998.9,N
1541243876.0,286046998.9,N
1541243895.8,286046999.5,N
1541243915.7,286046997.2,N
1541243935.5,286047000.3,N
1541243955.3,286046999.8,N
1541243975.2,286047004.3,N
1541243995.9,286047004.4,N
1541244015.7,286047004.8,N
1541244035.6,286047006.2,N
1541244055.4,286047008.7,N
1541244075.3,286047006.3,N
1541244095.1,286047006.6,N
1541244096.0,286047006.6,N
1541244115.8,286047006.2,N
1541244135.7,286047006.5,N
1541244155.5,286047006.7,N
1541244175.3,286047007.2,N
1541244195.2,286047004.2,N
1541244215.0,286047002.0,N
1541244215.9,286047002.0,N
1541244235.8,286047002.8,N
1541244255.6,286046999.9,N
1541244275.4,286047003.0,N
1541244295.3,286047007.0,N
1541244315.1,286047005.4,N
1541244335.8,286047005.1,N
1541244355.7,286047007.0,N
1541244375.5,286047006.9,N
1541244395.3,286047009.2,N
1541244415.2,286047009.0,N
1541244435.0,286047006.3,N
1541244435.9,286047006.3,N
1541244455.8,286047007.2,N
1541244475.6,286047005.8,N
1541244495.4,286047008.2,Y
1541244515.3,286047005.8,P
1541244535.1,286047006.9,P
1541244555.8,286047006.5,P
1541244575.7,286047019.3,Y
1541244595.5,286047016.3,P
1541244615.4,286047020.2,P
1541244635.2,286047015.5,N
1541244655.0,286047008.5,N
1541244655.9,286047008.5,N
1541244675.8,286047004.9,N
1541244695.6,286047003.4,N
1541244715.4,286047004.2,N
1541244735.3,286047002.0,N
1541244755.1,286047000.3,N
1541244775.9,286046999.2,N
1541244795.7,286046997.8,N
1541244815.5,286046996.4,N
1541244835.4,286046994.6,N
1541244855.2,286046993.1,N
1541244875.0,286046990.1,N
1541244875.9,286046990.1,N
1541244895.8,286046992.6,N
1541244915.6,286046994.4,N
1541244935.5,286046996.3,N
1541244955.3,286046991.7,N
1541244975.1,286046992.7,N
1541244995.9,286046992.8,N
1541245015.7,286046992.3,N
1541245035.5,286046990.3,N
1541245055.4,286046992.0,N
1541245075.2,286046992.1,N
1541245095.0,286046992.3,N
1541245096.0,286046992.3,N
1541245115.8,286046993.2,N
1541245135.6,286046989.1,N
1541245155.5,286046989.9,N
1541245175.3,286046987.2,N
1541245195.1,286046987.2,N
1541245215.9,286046989.5,N
1541245235.7,286046987.3,N
1541245255.5,286046986.9,N
1541245275.4,286046988.5,N
1541245295.2,286046992.7,N
1541245315.1,286046990.8,N
1541245316.0,286046990.8,Y
1541245335.8,286046998.1,P
1541245355.6,286047000.4,N
1541245375.5,286047000.2,N
1541245395.3,286047000.7,N
1541245415.1,286046999.4,N
1541245435.9,286046997.0,N
1541245455.7,286047001.2,N
1541245475.6,286047002.6,N
1541245495.4,286047002.5,N
1541245515.2,286046999.8,N
1541245535.1,286047001.9,N
1541245536.0,286047001.9,N
1541245555.8,286047003.4,N
1541245575.6,286047006.6,N
1541245595.5,286047008.4,N
1541245615.3,286047009.3,N
1541245635.2,286047011.4,N
1541245655.9,286047012.3,N
1541245675.7,286047004.8,N
1541245695.6,286047001.7,N
1541245715.4,286047002.8,N
1541245735.2,286047000.0,N
1541245755.1,286046996.8,N
1541245756.0,286046996.8,N
1541245775.8,286046993.4,N
1541245795.7,286046995.7,N
1541245815.5,286046997.1,N
1541245835.3,286046995.4,N
1541245855.2,286046993.5,N
1541245875.9,286046991.9,N
1541245895.7,286046991.7,N
1541245915.6,286046992.0,N
1541245935.4,286046992.0,N
1541245955.3,286046990.4,N
1541245975.1,286046989.2,N
1541245976.0,286046989.2,N
1541245995.8,286046994.1,N
1541246015.7,286046997.1,N
1541246035.5,286046998.9,N
1541246055.3,286046998.7,N
1541246075.2,286047000.4,N
1541246095.0,286047001.4,N
1541246095.9,286047001.4,N
1541246115.8,286047004.0,N
1541246135.6,286047001.7,N
1541246155.4,286047003.9,N
1541246175.3,286047002.9,N
1541246195.1,286047001.5,N
1541246196.0,286047001.5,N
1541246215.8,286047002.6,N
1541246235.7,286047000.3,N
1541246255.5,286047001.0,N
1541246275.3,286047001.1,N
1541246295.2,286046999.4,N
1541246315.0,286046998.9,N
1541246315.9,286046998.9,N
1541246335.8,286046998.5,N
1541246355.6,286046998.1,N
1541246375.4,286046997.8,N
1541246395.3,286046998.6,N
